Weather in Megrozero

Russia / Republic of Karelia     61°01′53″N   33°29′16″E
temp.,
°C
wind,
m/s
gust,
m/s
humid.,
%
clouds,
%
prec.,
mm/h
press.,
hPa
HPBL,
m
2 march, tue
tue200:00+1wnw5139493 0.1 1005816
03:00−1wnw5139087 0.1 1006697
06:00−2w4139144 0.0 1005593
09:00−3wnw5129259 0.0 1006644
12:000nw598970 0.0 1007805
15:000nw5117875 0.1 10091634
18:00−3nw3128163 0.1 1011612
21:00−6wnw3108731 0.1 1014231
3 march, wed
wed300:00−7w38920 0.0 1013168
03:00−4wnw4119532 0.0 1013441
06:00−5wnw4119481 0.0 1011445
09:00−4wnw4119484 0.0 1011478
12:00−1w5109469 0.0 1009567
15:00−1w599385 0.1 1008638
18:00−1w4993100 0.1 1005666
21:00−1wsw3998100 1.1 1001508
4 march, thu
thu400:000w51198100 2.7 996688
03:00−3w5119183 2.9 995615
06:00−3nnw7129498 0.6 995872
09:00−5nnw4108999 1.9 998673
12:00−4nnw368999 0.0 999629
15:00−4nnw348999 0.1 1001659
18:00−6nw239599 0.1 1001107
21:00−8nw2497100 0.3 1003132
5 march, fri
fri500:00−9nw1297100 0.4 100331
03:00−9nw259698 0.2 1003169
06:00−10nw249799 0.1 1004126
09:00−11nw249796 0.1 1005131
12:00−8nw239194 0.0 1007436
15:00−7nnw248997 0.1 1008615
18:00−11n3791100 0.1 1010333
21:00−16nne239571 0.1 101240
6 march, sat
sat600:00−18n12940 0.0 101320
03:00−19nw12940 0.0 101320
06:00−19w22980 0.0 101320
09:00−16wsw269812 0.0 1012156
12:00−10wsw3794100 0.1 1011461
15:00−8wsw4791100 0.1 1009588
18:00−10ssw3993100 0.0 1006310
21:00−11s3119497 0.0 1004368